STAR ONE C4

Last updated on Mon Nov 03 2025 00:02:57 GMT+0000 (Coordinated Universal Time)

1 40733U 15034B 25306.49334543 -.00000253 00000+0 00000+0 0 9990 2 40733 0.0375 21.2896 0001921 235.8379 252.5198 1.00270584 37742
UTC large
Height (km)
Speed (km/s)
/
Latitude / Longitude
Inclination (degrees)
Orbital Period (minutes)
Azimuth
Elevation
Range (km)
Doppler Factor

Next 0 passes for location: London (51.5072 / 0.1276)

Sorry there are no passes over London.